contact:dominique.lefevre@mio.osupytheas.fr, maurice.libes@osupytheas.fr, didier.mallarino@osupytheas.fr
Project:EMSO http://www.emso-fr.org/EMSO-France
Depth: 2436.0 m
Title:EMSO Ligure Ouest : Data MII capteur MICROCAT
DateTime_Computer,Latitude,Longitude,Temperature,Conductivity,Pressure,DateTime_Instrument
DateTime_Computer,Latitude,Longitude,degC,S m-1,dbar,DateTime_Instrument
2017-11-20T00:00:33Z,42.805,6.029,13.2970,4.59972,2472.047,2017-11-20T02:02:01Z
2017-11-20T00:03:36Z,42.805,6.029,13.2962,4.59981,2471.979,2017-11-20T02:05:04Z
2017-11-20T00:06:39Z,42.805,6.029,13.2960,4.59970,2472.024,2017-11-20T02:08:07Z
2017-11-20T00:09:42Z,42.805,6.029,13.2955,4.59978,2472.002,2017-11-20T02:11:10Z
2017-11-20T00:12:45Z,42.805,6.029,13.2959,4.59975,2471.979,2017-11-20T02:14:12Z
2017-11-20T00:15:48Z,42.805,6.029,13.2961,4.59972,2471.964,2017-11-20T02:17:15Z
2017-11-20T00:18:50Z,42.805,6.029,13.2959,4.59975,2472.024,2017-11-20T02:20:18Z
2017-11-20T00:21:53Z,42.805,6.029,13.2965,4.59973,2471.964,2017-11-20T02:23:21Z
2017-11-20T00:24:56Z,42.805,6.029,13.2957,4.59977,2472.002,2017-11-20T02:26:24Z
2017-11-20T00:27:59Z,42.805,6.029,13.2952,4.59983,2471.979,2017-11-20T02:29:27Z
2017-11-20T00:31:02Z,42.805,6.029,13.2965,4.59975,2471.934,2017-11-20T02:32:30Z
2017-11-20T00:34:05Z,42.805,6.029,13.2964,4.59980,2471.979,2017-11-20T02:35:33Z
2017-11-20T00:37:08Z,42.805,6.029,13.2969,4.59982,2471.979,2017-11-20T02:38:36Z
2017-11-20T00:40:11Z,42.805,6.029,13.2986,4.59983,2471.979,2017-11-20T02:41:38Z
2017-11-20T00:43:14Z,42.805,6.029,13.2963,4.59983,2472.002,2017-11-20T02:44:41Z
2017-11-20T00:46:17Z,42.805,6.029,13.2964,4.59981,2471.942,2017-11-20T02:47:44Z
2017-11-20T00:49:19Z,42.805,6.029,13.2969,4.59981,2471.957,2017-11-20T02:50:47Z
2017-11-20T00:52:22Z,42.805,6.029,13.2964,4.59977,2471.979,2017-11-20T02:53:50Z
2017-11-20T00:55:25Z,42.805,6.029,13.2962,4.59981,2471.957,2017-11-20T02:56:53Z
2017-11-20T00:58:28Z,42.805,6.029,13.2973,4.59978,2471.964,2017-11-20T02:59:56Z
2017-11-20T01:01:31Z,42.805,6.029,13.2976,4.59982,2471.942,2017-11-20T03:02:59Z
2017-11-20T01:04:34Z,42.805,6.029,13.2967,4.59985,2471.964,2017-11-20T03:06:02Z
2017-11-20T01:07:37Z,42.805,6.029,13.2968,4.59986,2471.957,2017-11-20T03:09:04Z
2017-11-20T01:10:40Z,42.805,6.029,13.2976,4.60012,2471.957,2017-11-20T03:12:07Z
2017-11-20T01:13:43Z,42.805,6.029,13.2982,4.59980,2471.957,2017-11-20T03:15:10Z
2017-11-20T01:16:45Z,42.805,6.029,13.2964,4.59987,2471.942,2017-11-20T03:18:13Z
2017-11-20T01:19:48Z,42.805,6.029,13.2969,4.59996,2471.934,2017-11-20T03:21:16Z
2017-11-20T01:22:51Z,42.805,6.029,13.2976,4.60003,2471.957,2017-11-20T03:24:19Z
2017-11-20T01:25:54Z,42.805,6.029,13.2985,4.59993,2471.942,2017-11-20T03:27:22Z
2017-11-20T01:28:57Z,42.805,6.029,13.2977,4.59983,2471.957,2017-11-20T03:30:25Z
2017-11-20T01:32:00Z,42.805,6.029,13.2971,4.59993,2471.919,2017-11-20T03:33:28Z
2017-11-20T01:35:03Z,42.805,6.029,13.2967,4.59991,2471.957,2017-11-20T03:36:31Z
2017-11-20T01:38:06Z,42.805,6.029,13.2975,4.60009,2471.979,2017-11-20T03:39:33Z
2017-11-20T01:41:09Z,42.805,6.029,13.2975,4.59995,2471.957,2017-11-20T03:42:36Z
2017-11-20T01:44:11Z,42.805,6.029,13.2973,4.59979,2471.942,2017-11-20T03:45:39Z
2017-11-20T01:47:14Z,42.805,6.029,13.2961,4.60001,2471.942,2017-11-20T03:48:42Z
2017-11-20T01:50:17Z,42.805,6.029,13.2961,4.59995,2471.957,2017-11-20T03:51:45Z
2017-11-20T01:53:20Z,42.805,6.029,13.2973,4.59992,2471.942,2017-11-20T03:54:48Z
2017-11-20T01:56:23Z,42.805,6.029,13.2968,4.59998,2471.912,2017-11-20T03:57:51Z
2017-11-20T01:59:26Z,42.805,6.029,13.2991,4.60014,2471.979,2017-11-20T04:00:54Z
2017-11-20T02:02:29Z,42.805,6.029,13.2986,4.60011,2471.957,2017-11-20T04:03:57Z
2017-11-20T02:05:32Z,42.805,6.029,13.2976,4.60012,2471.957,2017-11-20T04:06:59Z
2017-11-20T02:08:35Z,42.805,6.029,13.2943,4.59990,2471.934,2017-11-20T04:10:02Z
2017-11-20T02:11:37Z,42.805,6.029,13.2940,4.59973,2471.957,2017-11-20T04:13:05Z
2017-11-20T02:14:40Z,42.805,6.029,13.2946,4.59981,2471.919,2017-11-20T04:16:08Z
2017-11-20T02:17:43Z,42.805,6.029,13.2976,4.59989,2471.979,2017-11-20T04:19:11Z
2017-11-20T02:20:46Z,42.805,6.029,13.2939,4.60000,2471.957,2017-11-20T04:22:14Z
2017-11-20T02:23:49Z,42.805,6.029,13.2943,4.60019,2471.919,2017-11-20T04:25:17Z
2017-11-20T02:26:52Z,42.805,6.029,13.2943,4.60005,2471.942,2017-11-20T04:28:20Z
2017-11-20T02:29:55Z,42.805,6.029,13.2939,4.59983,2471.979,2017-11-20T04:31:23Z
2017-11-20T02:32:58Z,42.805,6.029,13.2939,4.59961,2471.919,2017-11-20T04:34:25Z
2017-11-20T02:36:01Z,42.805,6.029,13.2936,4.59964,2471.957,2017-11-20T04:37:28Z
2017-11-20T02:39:04Z,42.805,6.029,13.2938,4.59967,2471.979,2017-11-20T04:40:31Z
2017-11-20T02:42:06Z,42.805,6.029,13.2939,4.59976,2471.979,2017-11-20T04:43:34Z
2017-11-20T02:45:09Z,42.805,6.029,13.2939,4.59975,2471.942,2017-11-20T04:46:37Z
2017-11-20T02:48:12Z,42.805,6.029,13.2936,4.59964,2471.957,2017-11-20T04:49:40Z
2017-11-20T02:51:15Z,42.805,6.029,13.2940,4.59965,2471.957,2017-11-20T04:52:43Z
2017-11-20T02:54:18Z,42.805,6.029,13.2937,4.59964,2471.957,2017-11-20T04:55:46Z
2017-11-20T02:57:21Z,42.805,6.029,13.2939,4.59964,2471.957,2017-11-20T04:58:49Z
2017-11-20T03:00:24Z,42.805,6.029,13.2940,4.59962,2471.942,2017-11-20T05:01:52Z
2017-11-20T03:03:27Z,42.805,6.029,13.2935,4.59964,2471.942,2017-11-20T05:04:54Z
2017-11-20T03:06:30Z,42.805,6.029,13.2939,4.59966,2471.979,2017-11-20T05:07:57Z
2017-11-20T03:09:32Z,42.805,6.029,13.2937,4.59962,2472.002,2017-11-20T05:11:00Z
2017-11-20T03:12:35Z,42.805,6.029,13.2935,4.59967,2471.979,2017-11-20T05:14:03Z
2017-11-20T03:15:38Z,42.805,6.029,13.2940,4.59965,2471.957,2017-11-20T05:17:06Z
2017-11-20T03:18:41Z,42.805,6.029,13.2936,4.59964,2471.979,2017-11-20T05:20:09Z
2017-11-20T03:21:44Z,42.805,6.029,13.2936,4.59962,2471.957,2017-11-20T05:23:12Z
2017-11-20T03:24:47Z,42.805,6.029,13.2939,4.59966,2471.979,2017-11-20T05:26:15Z
2017-11-20T03:27:50Z,42.805,6.029,13.2937,4.59969,2471.979,2017-11-20T05:29:18Z
2017-11-20T03:30:53Z,42.805,6.029,13.2937,4.59966,2471.957,2017-11-20T05:32:20Z
2017-11-20T03:33:56Z,42.805,6.029,13.2937,4.59967,2471.979,2017-11-20T05:35:23Z
2017-11-20T03:36:58Z,42.805,6.029,13.2942,4.59965,2471.964,2017-11-20T05:38:26Z
2017-11-20T03:40:01Z,42.805,6.029,13.2934,4.59967,2471.964,2017-11-20T05:41:29Z
2017-11-20T03:43:04Z,42.805,6.029,13.2940,4.59968,2471.957,2017-11-20T05:44:32Z
2017-11-20T03:46:07Z,42.805,6.029,13.2939,4.59971,2471.979,2017-11-20T05:47:35Z
2017-11-20T03:49:10Z,42.805,6.029,13.2935,4.59965,2471.964,2017-11-20T05:50:38Z
2017-11-20T03:52:13Z,42.805,6.029,13.2940,4.59966,2471.957,2017-11-20T05:53:41Z
2017-11-20T03:55:16Z,42.805,6.029,13.2940,4.59970,2471.979,2017-11-20T05:56:44Z
2017-11-20T03:58:19Z,42.805,6.029,13.2939,4.59968,2471.979,2017-11-20T05:59:46Z
2017-11-20T04:01:22Z,42.805,6.029,13.2942,4.59971,2471.979,2017-11-20T06:02:49Z
2017-11-20T04:04:25Z,42.805,6.029,13.2938,4.59964,2472.024,2017-11-20T06:05:52Z
2017-11-20T04:07:27Z,42.805,6.029,13.2935,4.59970,2471.964,2017-11-20T06:08:55Z
2017-11-20T04:10:30Z,42.805,6.029,13.2938,4.59965,2472.01,2017-11-20T06:11:58Z
2017-11-20T04:13:33Z,42.805,6.029,13.2939,4.59968,2471.979,2017-11-20T06:15:01Z
2017-11-20T04:16:36Z,42.805,6.029,13.2936,4.59967,2472.002,2017-11-20T06:18:04Z
2017-11-20T04:19:39Z,42.805,6.029,13.2941,4.59969,2471.987,2017-11-20T06:21:07Z
2017-11-20T04:22:42Z,42.805,6.029,13.2935,4.59964,2472.002,2017-11-20T06:24:10Z
2017-11-20T04:25:45Z,42.805,6.029,13.2939,4.59963,2472.024,2017-11-20T06:27:12Z
2017-11-20T04:28:48Z,42.805,6.029,13.2935,4.59964,2472.024,2017-11-20T06:30:15Z
2017-11-20T04:31:51Z,42.805,6.029,13.2940,4.59975,2472.002,2017-11-20T06:33:18Z
2017-11-20T04:34:53Z,42.805,6.029,13.2938,4.59968,2472.01,2017-11-20T06:36:21Z
2017-11-20T04:37:56Z,42.805,6.029,13.2938,4.59964,2471.987,2017-11-20T06:39:24Z
2017-11-20T04:40:59Z,42.805,6.029,13.2940,4.59976,2471.987,2017-11-20T06:42:27Z
2017-11-20T04:44:02Z,42.805,6.029,13.2940,4.59966,2472.024,2017-11-20T06:45:30Z
2017-11-20T04:47:05Z,42.805,6.029,13.2935,4.59974,2472.024,2017-11-20T06:48:33Z
2017-11-20T04:50:08Z,42.805,6.029,13.2936,4.59978,2472.002,2017-11-20T06:51:36Z
2017-11-20T04:53:11Z,42.805,6.029,13.2937,4.59981,2472.024,2017-11-20T06:54:38Z
2017-11-20T04:56:14Z,42.805,6.029,13.2942,4.59980,2472.047,2017-11-20T06:57:41Z
2017-11-20T04:59:17Z,42.805,6.029,13.2939,4.59978,2472.069,2017-11-20T07:00:44Z
2017-11-20T05:02:19Z,42.805,6.029,13.2936,4.59972,2472.01,2017-11-20T07:03:47Z
2017-11-20T05:05:22Z,42.805,6.029,13.2934,4.59977,2472.032,2017-11-20T07:06:50Z
2017-11-20T05:08:25Z,42.805,6.029,13.2939,4.59970,2472.032,2017-11-20T07:09:53Z
2017-11-20T05:11:28Z,42.805,6.029,13.2936,4.59977,2472.047,2017-11-20T07:12:56Z
2017-11-20T05:14:31Z,42.805,6.029,13.2945,4.59972,2472.047,2017-11-20T07:15:59Z
2017-11-20T05:17:34Z,42.805,6.029,13.2937,4.59976,2472.032,2017-11-20T07:19:02Z
2017-11-20T05:20:37Z,42.805,6.029,13.2939,4.59967,2472.069,2017-11-20T07:22:05Z
2017-11-20T05:23:40Z,42.805,6.029,13.2940,4.59973,2472.069,2017-11-20T07:25:07Z
2017-11-20T05:26:43Z,42.805,6.029,13.2939,4.59965,2472.069,2017-11-20T07:28:10Z
2017-11-20T05:29:45Z,42.805,6.029,13.2940,4.59963,2472.077,2017-11-20T07:31:13Z
2017-11-20T05:32:48Z,42.805,6.029,13.2943,4.59967,2472.092,2017-11-20T07:34:16Z
2017-11-20T05:35:51Z,42.805,6.029,13.2936,4.59967,2472.077,2017-11-20T07:37:19Z
2017-11-20T05:38:54Z,42.805,6.029,13.2940,4.59965,2472.055,2017-11-20T07:40:22Z
2017-11-20T05:41:57Z,42.805,6.029,13.2941,4.59964,2472.069,2017-11-20T07:43:25Z
2017-11-20T05:45:00Z,42.805,6.029,13.2938,4.59963,2472.077,2017-11-20T07:46:28Z
2017-11-20T05:48:03Z,42.805,6.029,13.2945,4.59971,2472.115,2017-11-20T07:49:31Z
2017-11-20T05:51:06Z,42.805,6.029,13.2939,4.59977,2472.077,2017-11-20T07:52:33Z
2017-11-20T05:54:09Z,42.805,6.029,13.2938,4.59972,2472.092,2017-11-20T07:55:36Z
2017-11-20T05:57:12Z,42.805,6.029,13.2939,4.59963,2472.115,2017-11-20T07:58:39Z
2017-11-20T06:00:14Z,42.805,6.029,13.2937,4.59972,2472.077,2017-11-20T08:01:42Z
2017-11-20T06:03:17Z,42.805,6.029,13.2940,4.59970,2472.1,2017-11-20T08:04:45Z
2017-11-20T06:06:20Z,42.805,6.029,13.2937,4.59988,2472.115,2017-11-20T08:07:48Z
2017-11-20T06:09:23Z,42.805,6.029,13.2936,4.59984,2472.137,2017-11-20T08:10:51Z
2017-11-20T06:12:26Z,42.805,6.029,13.2938,4.59984,2472.092,2017-11-20T08:13:54Z
2017-11-20T06:15:29Z,42.805,6.029,13.2941,4.60008,2472.123,2017-11-20T08:16:57Z
2017-11-20T06:18:32Z,42.805,6.029,13.2988,4.60007,2472.077,2017-11-20T08:19:59Z
2017-11-20T06:21:35Z,42.805,6.029,13.2937,4.59987,2472.137,2017-11-20T08:23:02Z
2017-11-20T06:24:38Z,42.805,6.029,13.2946,4.59983,2472.137,2017-11-20T08:26:05Z
2017-11-20T06:27:40Z,42.805,6.029,13.2941,4.59970,2472.115,2017-11-20T08:29:08Z
2017-11-20T06:30:43Z,42.805,6.029,13.2940,4.59968,2472.123,2017-11-20T08:32:11Z
2017-11-20T06:33:46Z,42.805,6.029,13.2936,4.59965,2472.16,2017-11-20T08:35:14Z
2017-11-20T06:36:49Z,42.805,6.029,13.2940,4.59977,2472.16,2017-11-20T08:38:17Z
2017-11-20T06:39:52Z,42.805,6.029,13.2940,4.59980,2472.16,2017-11-20T08:41:20Z
2017-11-20T06:42:55Z,42.805,6.029,13.2951,4.59972,2472.13,2017-11-20T08:44:23Z
2017-11-20T06:45:58Z,42.805,6.029,13.2943,4.59978,2472.123,2017-11-20T08:47:26Z
2017-11-20T06:49:01Z,42.805,6.029,13.2961,4.59991,2472.123,2017-11-20T08:50:28Z
2017-11-20T06:52:04Z,42.805,6.029,13.2940,4.59990,2472.145,2017-11-20T08:53:31Z
2017-11-20T06:55:06Z,42.805,6.029,13.2948,4.60035,2472.198,2017-11-20T08:56:34Z
2017-11-20T06:58:09Z,42.805,6.029,13.2978,4.60005,2472.123,2017-11-20T08:59:37Z
2017-11-20T07:01:12Z,42.805,6.029,13.2953,4.60001,2472.182,2017-11-20T09:02:40Z
2017-11-20T07:04:15Z,42.805,6.029,13.2954,4.59990,2472.145,2017-11-20T09:05:43Z
2017-11-20T07:07:18Z,42.805,6.029,13.3009,4.60006,2472.145,2017-11-20T09:08:46Z
2017-11-20T07:10:21Z,42.805,6.029,13.2962,4.59987,2472.205,2017-11-20T09:11:49Z
2017-11-20T07:13:24Z,42.805,6.029,13.3012,4.59989,2472.182,2017-11-20T09:14:52Z
2017-11-20T07:16:27Z,42.805,6.029,13.2945,4.59995,2472.182,2017-11-20T09:17:54Z
2017-11-20T07:19:30Z,42.805,6.029,13.2998,4.60007,2472.16,2017-11-20T09:20:57Z
2017-11-20T07:22:32Z,42.805,6.029,13.2945,4.59995,2472.168,2017-11-20T09:24:00Z
2017-11-20T07:25:35Z,42.805,6.029,13.2966,4.59978,2472.19,2017-11-20T09:27:03Z
2017-11-20T07:28:38Z,42.805,6.029,13.2981,4.59992,2472.182,2017-11-20T09:30:06Z
2017-11-20T07:31:41Z,42.805,6.029,13.2942,4.59981,2472.182,2017-11-20T09:33:09Z
2017-11-20T07:34:44Z,42.805,6.029,13.2938,4.59971,2472.205,2017-11-20T09:36:12Z
2017-11-20T07:37:47Z,42.805,6.029,13.2940,4.59970,2472.182,2017-11-20T09:39:15Z
2017-11-20T07:40:50Z,42.805,6.029,13.2938,4.59969,2472.145,2017-11-20T09:42:18Z
2017-11-20T07:43:53Z,42.805,6.029,13.2935,4.59967,2472.198,2017-11-20T09:45:20Z
2017-11-20T07:46:56Z,42.805,6.029,13.2940,4.59967,2472.205,2017-11-20T09:48:23Z
2017-11-20T07:49:58Z,42.805,6.029,13.2935,4.59965,2472.227,2017-11-20T09:51:26Z
2017-11-20T07:53:01Z,42.805,6.029,13.2939,4.59965,2472.16,2017-11-20T09:54:29Z
2017-11-20T07:56:04Z,42.805,6.029,13.2945,4.59965,2472.19,2017-11-20T09:57:32Z
2017-11-20T07:59:07Z,42.805,6.029,13.2956,4.59977,2472.205,2017-11-20T10:00:35Z
2017-11-20T08:02:10Z,42.805,6.029,13.2965,4.59978,2472.205,2017-11-20T10:03:38Z
2017-11-20T08:05:13Z,42.805,6.029,13.2968,4.59996,2472.168,2017-11-20T10:06:41Z
2017-11-20T08:08:16Z,42.805,6.029,13.2952,4.59977,2472.168,2017-11-20T10:09:44Z
2017-11-20T08:11:19Z,42.805,6.029,13.2951,4.59974,2472.182,2017-11-20T10:12:46Z
2017-11-20T08:14:22Z,42.805,6.029,13.2947,4.59970,2472.205,2017-11-20T10:15:49Z
2017-11-20T08:17:25Z,42.805,6.029,13.2974,4.60008,2472.16,2017-11-20T10:18:52Z
2017-11-20T08:20:27Z,42.805,6.029,13.2961,4.59999,2472.182,2017-11-20T10:21:55Z
2017-11-20T08:23:30Z,42.805,6.029,13.2978,4.60018,2472.205,2017-11-20T10:24:58Z
2017-11-20T08:26:33Z,42.805,6.029,13.2967,4.60024,2472.16,2017-11-20T10:28:01Z
2017-11-20T08:29:36Z,42.805,6.029,13.2971,4.60031,2472.182,2017-11-20T10:31:04Z
2017-11-20T08:32:39Z,42.805,6.029,13.2949,4.59993,2472.182,2017-11-20T10:34:07Z
2017-11-20T08:35:42Z,42.805,6.029,13.2967,4.59976,2472.19,2017-11-20T10:37:10Z
2017-11-20T08:38:45Z,42.805,6.029,13.2967,4.59992,2472.182,2017-11-20T10:40:13Z
2017-11-20T08:41:48Z,42.805,6.029,13.2972,4.60048,2472.205,2017-11-20T10:43:15Z
2017-11-20T08:44:51Z,42.805,6.029,13.2970,4.60049,2472.19,2017-11-20T10:46:18Z
2017-11-20T08:47:54Z,42.805,6.029,13.2968,4.60062,2472.205,2017-11-20T10:49:21Z
2017-11-20T08:50:56Z,42.805,6.029,13.2964,4.60058,2472.205,2017-11-20T10:52:24Z
2017-11-20T08:53:59Z,42.805,6.029,13.2968,4.60047,2472.182,2017-11-20T10:55:27Z
2017-11-20T08:57:02Z,42.805,6.029,13.2965,4.60061,2472.19,2017-11-20T10:58:30Z
2017-11-20T09:00:05Z,42.805,6.029,13.2964,4.60011,2472.205,2017-11-20T11:01:33Z
2017-11-20T09:03:08Z,42.805,6.029,13.2964,4.60034,2472.19,2017-11-20T11:04:36Z
2017-11-20T09:06:11Z,42.805,6.029,13.2961,4.60028,2472.168,2017-11-20T11:07:39Z
2017-11-20T09:09:14Z,42.805,6.029,13.2955,4.60009,2472.182,2017-11-20T11:10:42Z
2017-11-20T09:12:17Z,42.805,6.029,13.2960,4.59981,2472.16,2017-11-20T11:13:44Z
2017-11-20T09:15:20Z,42.805,6.029,13.2954,4.60015,2472.182,2017-11-20T11:16:47Z
2017-11-20T09:18:22Z,42.805,6.029,13.2952,4.59983,2472.205,2017-11-20T11:19:50Z
2017-11-20T09:21:25Z,42.805,6.029,13.2948,4.59983,2472.182,2017-11-20T11:22:53Z
2017-11-20T09:24:28Z,42.805,6.029,13.2956,4.59990,2472.168,2017-11-20T11:25:56Z
2017-11-20T09:27:31Z,42.805,6.029,13.2954,4.59996,2472.205,2017-11-20T11:28:59Z
2017-11-20T09:30:34Z,42.805,6.029,13.2952,4.59995,2472.16,2017-11-20T11:32:02Z
2017-11-20T09:33:37Z,42.805,6.029,13.2951,4.60018,2472.137,2017-11-20T11:35:05Z
2017-11-20T09:36:40Z,42.805,6.029,13.2954,4.59988,2472.205,2017-11-20T11:38:08Z
2017-11-20T09:39:43Z,42.805,6.029,13.2951,4.59996,2472.182,2017-11-20T11:41:11Z
2017-11-20T09:42:46Z,42.805,6.029,13.2949,4.60004,2472.205,2017-11-20T11:44:13Z
2017-11-20T09:45:49Z,42.805,6.029,13.2951,4.59990,2472.205,2017-11-20T11:47:16Z
2017-11-20T09:48:51Z,42.805,6.029,13.2954,4.59999,2472.145,2017-11-20T11:50:19Z
2017-11-20T09:51:54Z,42.805,6.029,13.2951,4.59993,2472.19,2017-11-20T11:53:22Z
2017-11-20T09:54:57Z,42.805,6.029,13.2953,4.60011,2472.168,2017-11-20T11:56:25Z
2017-11-20T09:58:00Z,42.805,6.029,13.2952,4.59993,2472.168,2017-11-20T11:59:28Z
2017-11-20T10:01:03Z,42.805,6.029,13.2953,4.59985,2472.16,2017-11-20T12:02:31Z
2017-11-20T10:04:06Z,42.805,6.029,13.2953,4.59980,2472.182,2017-11-20T12:05:34Z
2017-11-20T10:07:09Z,42.805,6.029,13.2948,4.59989,2472.182,2017-11-20T12:08:37Z
2017-11-20T10:10:12Z,42.805,6.029,13.2956,4.59998,2472.16,2017-11-20T12:11:40Z
2017-11-20T10:13:15Z,42.805,6.029,13.2948,4.59985,2472.182,2017-11-20T12:14:42Z
2017-11-20T10:16:18Z,42.805,6.029,13.2950,4.59993,2472.123,2017-11-20T12:17:45Z
2017-11-20T10:19:20Z,42.805,6.029,13.2953,4.59981,2472.168,2017-11-20T12:20:48Z
2017-11-20T10:22:23Z,42.805,6.029,13.2954,4.59982,2472.16,2017-11-20T12:23:51Z
2017-11-20T10:25:26Z,42.805,6.029,13.2960,4.60001,2472.16,2017-11-20T12:26:54Z
2017-11-20T10:28:29Z,42.805,6.029,13.2957,4.59983,2472.137,2017-11-20T12:29:57Z
2017-11-20T10:31:32Z,42.805,6.029,13.2954,4.59990,2472.182,2017-11-20T12:33:00Z
2017-11-20T10:34:35Z,42.805,6.029,13.2954,4.59994,2472.16,2017-11-20T12:36:03Z
2017-11-20T10:37:38Z,42.805,6.029,13.2959,4.59999,2472.16,2017-11-20T12:39:06Z
2017-11-20T10:40:41Z,42.805,6.029,13.2952,4.60001,2472.1,2017-11-20T12:42:08Z
2017-11-20T10:43:44Z,42.805,6.029,13.2957,4.59987,2472.16,2017-11-20T12:45:11Z
2017-11-20T10:46:47Z,42.805,6.029,13.2950,4.59995,2472.137,2017-11-20T12:48:14Z
2017-11-20T10:49:49Z,42.805,6.029,13.2950,4.59987,2472.16,2017-11-20T12:51:17Z
2017-11-20T10:52:52Z,42.805,6.029,13.2956,4.59984,2472.137,2017-11-20T12:54:20Z
2017-11-20T10:55:55Z,42.805,6.029,13.2948,4.60003,2472.175,2017-11-20T12:57:23Z
2017-11-20T10:58:58Z,42.805,6.029,13.2955,4.59989,2472.137,2017-11-20T13:00:26Z
2017-11-20T11:02:01Z,42.805,6.029,13.2957,4.60001,2472.137,2017-11-20T13:03:29Z
2017-11-20T11:05:04Z,42.805,6.029,13.2954,4.59995,2472.137,2017-11-20T13:06:32Z
2017-11-20T11:08:07Z,42.805,6.029,13.2960,4.59994,2472.092,2017-11-20T13:09:35Z
2017-11-20T11:11:10Z,42.805,6.029,13.2954,4.59999,2472.1,2017-11-20T13:12:37Z
2017-11-20T11:14:13Z,42.805,6.029,13.2957,4.60035,2472.092,2017-11-20T13:15:40Z
2017-11-20T11:17:15Z,42.805,6.029,13.2958,4.60011,2472.115,2017-11-20T13:18:43Z
2017-11-20T11:20:18Z,42.805,6.029,13.2950,4.60008,2472.092,2017-11-20T13:21:46Z
2017-11-20T11:23:21Z,42.805,6.029,13.2957,4.60001,2472.077,2017-11-20T13:24:49Z
2017-11-20T11:26:24Z,42.805,6.029,13.2950,4.60002,2472.077,2017-11-20T13:27:52Z
2017-11-20T11:29:27Z,42.805,6.029,13.2955,4.59994,2472.115,2017-11-20T13:30:55Z
2017-11-20T11:32:30Z,42.805,6.029,13.2954,4.60000,2472.092,2017-11-20T13:33:58Z
2017-11-20T11:35:33Z,42.805,6.029,13.2948,4.59989,2472.077,2017-11-20T13:37:01Z
2017-11-20T11:38:36Z,42.805,6.029,13.2948,4.59988,2472.077,2017-11-20T13:40:04Z
2017-11-20T11:41:39Z,42.805,6.029,13.2945,4.59982,2472.137,2017-11-20T13:43:06Z
2017-11-20T11:44:42Z,42.805,6.029,13.2955,4.59993,2472.077,2017-11-20T13:46:09Z
2017-11-20T11:47:44Z,42.805,6.029,13.2946,4.59978,2472.092,2017-11-20T13:49:12Z
2017-11-20T11:50:47Z,42.805,6.029,13.2953,4.59997,2472.092,2017-11-20T13:52:15Z
2017-11-20T11:53:50Z,42.805,6.029,13.2951,4.60011,2472.092,2017-11-20T13:55:18Z
2017-11-20T11:56:53Z,42.805,6.029,13.2954,4.60001,2472.077,2017-11-20T13:58:21Z
2017-11-20T11:59:56Z,42.805,6.029,13.2948,4.60002,2472.115,2017-11-20T14:01:24Z
2017-11-20T12:02:59Z,42.805,6.029,13.2946,4.59982,2472.092,2017-11-20T14:04:27Z
2017-11-20T12:06:02Z,42.805,6.029,13.2950,4.59984,2472.069,2017-11-20T14:07:30Z
2017-11-20T12:09:05Z,42.805,6.029,13.2945,4.59987,2472.115,2017-11-20T14:10:32Z
2017-11-20T12:12:08Z,42.805,6.029,13.2947,4.59978,2472.115,2017-11-20T14:13:35Z
2017-11-20T12:15:11Z,42.805,6.029,13.2948,4.59984,2472.092,2017-11-20T14:16:38Z
2017-11-20T12:18:13Z,42.805,6.029,13.2946,4.59972,2472.115,2017-11-20T14:19:41Z
2017-11-20T12:21:16Z,42.805,6.029,13.2950,4.59979,2472.092,2017-11-20T14:22:44Z
2017-11-20T12:24:19Z,42.805,6.029,13.2945,4.59970,2472.115,2017-11-20T14:25:47Z
2017-11-20T12:27:22Z,42.805,6.029,13.2943,4.59971,2472.077,2017-11-20T14:28:50Z
2017-11-20T12:30:25Z,42.805,6.029,13.2951,4.59988,2472.069,2017-11-20T14:31:53Z
2017-11-20T12:33:28Z,42.805,6.029,13.2946,4.59989,2472.092,2017-11-20T14:34:56Z
2017-11-20T12:36:31Z,42.805,6.029,13.2952,4.59998,2472.055,2017-11-20T14:37:59Z
2017-11-20T12:39:34Z,42.805,6.029,13.2953,4.59995,2472.069,2017-11-20T14:41:01Z
2017-11-20T12:42:37Z,42.805,6.029,13.2945,4.59997,2472.092,2017-11-20T14:44:04Z
2017-11-20T12:45:39Z,42.805,6.029,13.2950,4.60006,2472.092,2017-11-20T14:47:07Z
2017-11-20T12:48:42Z,42.805,6.029,13.2959,4.60012,2472.077,2017-11-20T14:50:10Z
2017-11-20T12:51:45Z,42.805,6.029,13.2968,4.60023,2472.047,2017-11-20T14:53:13Z
2017-11-20T12:54:48Z,42.805,6.029,13.2969,4.60033,2472.047,2017-11-20T14:56:16Z
2017-11-20T12:57:51Z,42.805,6.029,13.2959,4.60021,2472.055,2017-11-20T14:59:19Z
2017-11-20T13:00:54Z,42.805,6.029,13.2957,4.60018,2472.047,2017-11-20T15:02:22Z
2017-11-20T13:03:57Z,42.805,6.029,13.2969,4.60012,2472.047,2017-11-20T15:05:25Z
2017-11-20T13:07:00Z,42.805,6.029,13.2956,4.60003,2472.069,2017-11-20T15:08:28Z
2017-11-20T13:10:03Z,42.805,6.029,13.2943,4.59996,2472.047,2017-11-20T15:11:30Z
2017-11-20T13:13:06Z,42.805,6.029,13.2946,4.59990,2472.069,2017-11-20T15:14:33Z
2017-11-20T13:16:08Z,42.805,6.029,13.2951,4.59988,2472.092,2017-11-20T15:17:36Z
2017-11-20T13:19:11Z,42.805,6.029,13.2952,4.60005,2472.069,2017-11-20T15:20:39Z
2017-11-20T13:22:14Z,42.805,6.029,13.2955,4.60033,2472.047,2017-11-20T15:23:42Z
2017-11-20T13:25:17Z,42.805,6.029,13.2968,4.60019,2472.032,2017-11-20T15:26:45Z
2017-11-20T13:28:20Z,42.805,6.029,13.2971,4.60018,2472.032,2017-11-20T15:29:48Z
2017-11-20T13:31:23Z,42.805,6.029,13.2964,4.60031,2472.069,2017-11-20T15:32:51Z
2017-11-20T13:34:26Z,42.805,6.029,13.2970,4.60020,2472.069,2017-11-20T15:35:54Z
2017-11-20T13:37:29Z,42.805,6.029,13.2976,4.60024,2472.024,2017-11-20T15:38:57Z
2017-11-20T13:40:32Z,42.805,6.029,13.2977,4.60012,2472.069,2017-11-20T15:41:59Z
2017-11-20T13:43:35Z,42.805,6.029,13.2960,4.60027,2472.069,2017-11-20T15:45:02Z
2017-11-20T13:46:37Z,42.805,6.029,13.2962,4.60027,2472.047,2017-11-20T15:48:05Z
2017-11-20T13:49:40Z,42.805,6.029,13.2964,4.60010,2472.024,2017-11-20T15:51:08Z
2017-11-20T13:52:43Z,42.805,6.029,13.2966,4.60032,2472.024,2017-11-20T15:54:11Z
2017-11-20T13:55:46Z,42.805,6.029,13.2982,4.60028,2472.055,2017-11-20T15:57:14Z
2017-11-20T13:58:49Z,42.805,6.029,13.2974,4.60021,2472.032,2017-11-20T16:00:17Z
2017-11-20T14:01:52Z,42.805,6.029,13.2970,4.60031,2472.032,2017-11-20T16:03:20Z
2017-11-20T14:04:55Z,42.805,6.029,13.2978,4.60034,2472.047,2017-11-20T16:06:23Z
2017-11-20T14:07:58Z,42.805,6.029,13.2978,4.60008,2472.047,2017-11-20T16:09:25Z
2017-11-20T14:11:01Z,42.805,6.029,13.2979,4.60041,2472.024,2017-11-20T16:12:28Z
2017-11-20T14:14:03Z,42.805,6.029,13.2988,4.60048,2472.047,2017-11-20T16:15:31Z
2017-11-20T14:17:06Z,42.805,6.029,13.2985,4.60031,2472.047,2017-11-20T16:18:34Z
2017-11-20T14:20:09Z,42.805,6.029,13.2978,4.60023,2472.032,2017-11-20T16:21:37Z
2017-11-20T14:23:12Z,42.805,6.029,13.2970,4.60009,2472.047,2017-11-20T16:24:40Z
2017-11-20T14:26:15Z,42.805,6.029,13.2994,4.60019,2472.047,2017-11-20T16:27:43Z
2017-11-20T14:29:18Z,42.805,6.029,13.2978,4.60033,2472.047,2017-11-20T16:30:46Z
2017-11-20T14:32:21Z,42.805,6.029,13.2964,4.59998,2472.047,2017-11-20T16:33:49Z
2017-11-20T14:35:24Z,42.805,6.029,13.2981,4.60046,2472.024,2017-11-20T16:36:52Z
2017-11-20T14:38:27Z,42.805,6.029,13.2968,4.60028,2472.024,2017-11-20T16:39:54Z
2017-11-20T14:41:30Z,42.805,6.029,13.2965,4.60018,2472.024,2017-11-20T16:42:57Z
2017-11-20T14:44:32Z,42.805,6.029,13.2964,4.60015,2472.047,2017-11-20T16:46:00Z
2017-11-20T14:47:35Z,42.805,6.029,13.2964,4.60011,2472.01,2017-11-20T16:49:03Z
2017-11-20T14:50:38Z,42.805,6.029,13.2964,4.60029,2472.024,2017-11-20T16:52:06Z
2017-11-20T14:53:41Z,42.805,6.029,13.2963,4.60041,2472.024,2017-11-20T16:55:09Z
2017-11-20T14:56:44Z,42.805,6.029,13.2966,4.60037,2472.024,2017-11-20T16:58:12Z